Weather reports worldwide

Advertisment
Wittering, United Kingdom (3462): temperature & dewpoint: 18.11.2020 15:00:00 - 24.11.2020 15:00:00 (GMT)Wittering, United Kingdom (3462): temperature -20cm & temperature -100cm: 18.11.2020 15:00:00 - 24.11.2020 15:00:00 (GMT)Wittering, United Kingdom (3462): wind speed & gusts: 18.11.2020 15:00:00 - 24.11.2020 15:00:00 (GMT)Wittering, United Kingdom (3462): wind direction: 18.11.2020 15:00:00 - 24.11.2020 15:00:00 (GMT)Wittering, United Kingdom (3462): reduced air pressure: 18.11.2020 15:00:00 - 24.11.2020 15:00:00 (GMT)Wittering, United Kingdom (3462): visibility: 18.11.2020 15:00:00 - 24.11.2020 15:00:00 (GMT)Wittering, United Kingdom (3462): sunshine duration: 18.11.2020 15:00:00 - 24.11.2020 15:00:00 (GMT)Wittering, United Kingdom (3462): precipitation: 18.11.2020 15:00:00 - 24.11.2020 15:00:00 (GMT)
Date & Time tt [°C] td [°C] tt -20cm [°C] tt -100cm [°C] ff [km/h] ff [kn] fx [km/h] fx [kn] dd ppp [hPa] vv [km] sd [min] rr [mm]
24.11.2020 15:00:00 - - - - - - - - - - - - -
24.11.2020 14:00:00 10,3 6,9 - - 26 14 - - S 1013,1 40 0 0,0
24.11.2020 13:00:00 10,5 7,5 - - 26 14 - - SSW 1013,8 35 0 0,0
24.11.2020 12:00:00 10,3 7,7 - - 26 14 - - SSW 1014,7 40 0 0,0
24.11.2020 11:00:00 10,3 8,0 - - 28 15 - - SSW 1015,5 10 0 0,0
24.11.2020 10:00:00 10,2 8,2 - - 28 15 - - SSW 1016,0 35 6 0,0
24.11.2020 09:00:00 9,6 8,0 7,7 10,4 26 14 - - SSW 1016,2 10 18 0,0
24.11.2020 08:00:00 9,1 7,8 - - 22 12 - - SSW 1016,5 10 0 0,0
24.11.2020 07:00:00 9,6 8,2 - - 24 13 - - S 1016,8 50 0 0,0
24.11.2020 06:00:00 9,4 7,9 - - 28 15 - - SSW 1017,1 60 0 0,0
24.11.2020 05:00:00 9,3 7,7 - - 26 14 - - SSW 1017,5 65 0 0,0
24.11.2020 04:00:00 8,4 7,1 - - 16 9 - - S 1018,0 55 0 0,0
24.11.2020 03:00:00 8,9 7,2 - - 21 11 - - SSW 1018,6 50 0 0,0
24.11.2020 02:00:00 9,6 7,7 - - 24 13 - - SSW 1019,3 65 0 0,0
24.11.2020 01:00:00 9,4 7,9 - - 28 15 - - SSW 1020,0 45 0 0,0
24.11.2020 00:00:00 8,4 7,2 - - 24 13 - - SSW 1020,4 30 - 0,0
23.11.2020 23:00:00 8,0 6,9 - - 31 17 50 27 SSW 1020,5 30 0 0,0
23.11.2020 22:00:00 7,8 6,8 - - 34 18 46 25 SSW 1021,2 27 0 0,0
23.11.2020 21:00:00 7,4 6,4 - - 28 15 - - SSW 1021,5 24 0 0,0
23.11.2020 20:00:00 7,1 6,2 - - 28 15 - - SSW 1021,7 19 0 0,0
23.11.2020 19:00:00 6,8 5,6 - - 26 14 - - SSW 1022,7 27 0 0,0
23.11.2020 18:00:00 6,7 5,2 - - 18 10 - - S 1023,2 40 0 0,0
23.11.2020 17:00:00 6,2 5,1 - - 15 8 - - S 1023,3 35 0 0,0
23.11.2020 16:00:00 7,6 5,3 - - 21 11 - - SSW 1023,5 55 18 0,0
23.11.2020 15:00:00 8,5 5,7 - - 15 8 - - SSW 1023,9 40 48 0,0
23.11.2020 14:00:00 8,3 6,1 - - 16 9 - - S 1024,6 10 6 0,0
23.11.2020 13:00:00 7,7 5,5 - - 22 12 - - SSW 1025,1 10 36 0,0
23.11.2020 12:00:00 8,2 6,0 - - 16 9 - - SSW 1025,9 20 60 0,0
23.11.2020 11:00:00 6,3 4,5 - - 13 7 - - S 1026,4 10 60 0,0
23.11.2020 10:00:00 4,0 3,0 - - 9 5 - - S 1026,8 10 60 0,0
23.11.2020 09:00:00 2,7 2,1 7,7 10,7 5 3 - - S 1027,3 20 30 0,2
23.11.2020 08:00:00 2,0 1,9 - - 15 8 - - WSW 1027,0 23 0 0,0
23.11.2020 07:00:00 1,0 0,7 - - 13 7 - - W 1026,8 15 0 0,0
23.11.2020 06:00:00 0,4 0,0 - - 15 8 - - W 1026,6 16 0 0,0
23.11.2020 05:00:00 1,1 0,6 - - 13 7 - - WSW 1026,6 15 0 0,0
23.11.2020 04:00:00 1,8 1,4 - - 15 8 - - WSW 1026,6 17 0 0,0
23.11.2020 03:00:00 1,0 0,5 - - 15 8 - - W 1026,6 14 0 0,0
23.11.2020 02:00:00 2,0 1,5 - - 15 8 - - W 1026,9 19 0 0,0
23.11.2020 01:00:00 1,6 0,6 - - 16 9 - - W 1026,9 18 0 0,0
23.11.2020 00:00:00 2,4 1,5 - - 16 9 - - W 1026,6 21 - 0,0
22.11.2020 23:00:00 2,8 1,8 - - 15 8 - - W 1026,5 17 0 0,0
22.11.2020 22:00:00 2,6 1,4 - - 13 7 - - W 1026,5 17 0 0,0
22.11.2020 21:00:00 3,0 2,0 - - 16 9 - - W 1026,6 18 0 0,0
22.11.2020 20:00:00 3,2 2,2 - - 13 7 - - WSW 1026,5 14 0 0,0
22.11.2020 19:00:00 3,2 1,8 - - 11 6 - - WSW 1026,3 30 0 0,0
22.11.2020 18:00:00 4,6 3,0 - - 9 5 - - WSW 1025,8 35 0 0,0
22.11.2020 17:00:00 4,6 2,7 - - 9 5 - - WSW 1025,7 40 0 0,0
22.11.2020 16:00:00 6,2 3,4 - - 9 5 - - WSW 1025,4 40 18 0,0
22.11.2020 15:00:00 8,2 4,1 - - 13 7 - - WSW 1025,2 40 60 0,0
22.11.2020 14:00:00 9,0 5,1 - - 15 8 - - W 1025,2 26 60 0,0
22.11.2020 13:00:00 8,3 5,0 - - 18 10 - - WSW 1025,5 40 48 0,0
22.11.2020 12:00:00 8,3 5,1 - - 18 10 - - WSW 1026,1 35 36 0,0
22.11.2020 11:00:00 7,6 5,5 - - 15 8 - - WSW 1026,3 30 24 0,0
22.11.2020 10:00:00 6,7 5,3 - - 16 9 - - W 1026,3 40 18 0,0
22.11.2020 09:00:00 5,4 4,8 9,0 10,7 15 8 - - WSW 1025,9 40 0 0,0
22.11.2020 08:00:00 3,9 3,4 - - 9 5 - - WSW 1025,5 35 0 0,0
22.11.2020 07:00:00 4,3 4,1 - - 13 7 - - WSW 1025,1 50 0 0,0
22.11.2020 06:00:00 4,7 4,3 - - 9 5 - - WSW 1024,7 50 0 0,0
22.11.2020 05:00:00 4,4 4,0 - - 13 7 - - WSW 1024,2 45 0 0,0
22.11.2020 04:00:00 5,8 4,9 - - 8 4 - - WSW 1023,8 75 0 0,0
22.11.2020 03:00:00 6,5 5,5 - - 5 3 - - WSW 1023,6 75 0 0,0
22.11.2020 02:00:00 7,3 5,9 - - 13 7 - - WSW 1023,1 75 0 0,0
22.11.2020 01:00:00 8,0 6,2 - - 15 8 - - WSW 1022,9 75 0 0,0
22.11.2020 00:00:00 9,6 8,0 - - 16 9 - - W 1022,7 75 - 0,0
21.11.2020 23:00:00 10,7 10,1 - - 15 8 - - W 1022,3 40 0 0,0
21.11.2020 22:00:00 10,9 10,0 - - 18 10 - - WSW 1022,1 75 0 0,0
21.11.2020 21:00:00 11,0 9,8 - - 24 13 - - SW 1022,0 4,7 0 0,0
21.11.2020 20:00:00 10,4 8,9 - - 22 12 - - SW 1022,1 75 0 0,0
21.11.2020 19:00:00 10,2 8,8 - - 21 11 - - SSW 1022,1 75 0 0,0
21.11.2020 18:00:00 9,9 8,3 - - 18 10 - - SSW 1022,3 65 0 0,0
21.11.2020 17:00:00 10,5 8,3 - - 21 11 - - SW 1022,0 70 0 0,0
21.11.2020 16:00:00 11,1 8,1 - - 24 13 - - SW 1021,9 75 6 0,0
21.11.2020 15:00:00 12,0 8,3 - - 28 15 - - SW 1022,1 75 0 0,0
21.11.2020 14:00:00 11,8 8,4 - - 29 16 55 30 SW 1022,3 75 0 0,0
21.11.2020 13:00:00 11,8 8,2 - - 39 21 55 30 WSW 1022,2 75 6 0,0
21.11.2020 12:00:00 12,4 8,4 - - 41 22 54 29 SW 1022,4 75 12 0,0
21.11.2020 11:00:00 11,0 8,2 - - 28 15 48 26 SW 1023,2 70 0 0,0
21.11.2020 10:00:00 10,7 7,8 - - 22 12 - - SW 1023,5 55 0 0,0
21.11.2020 09:00:00 10,7 7,6 8,9 10,7 31 17 48 26 WSW 1023,2 50 0 0,0
21.11.2020 08:00:00 10,3 7,3 - - 29 16 - - WSW 1023,0 65 0 0,0
21.11.2020 07:00:00 9,8 7,4 - - 26 14 50 27 SW 1022,9 75 0 0,0
21.11.2020 06:00:00 10,1 7,9 - - 29 16 59 32 WSW 1023,0 75 0 0,0
21.11.2020 05:00:00 10,4 8,0 - - 31 17 50 27 WSW 1022,8 75 0 0,0
21.11.2020 04:00:00 10,2 8,3 - - 28 15 48 26 SW 1023,0 75 0 0,0
21.11.2020 03:00:00 10,1 8,5 - - 28 15 - - SW 1023,7 70 0 0,0
21.11.2020 02:00:00 10,2 8,4 - - 29 16 - - SW 1023,7 75 0 0,0
21.11.2020 01:00:00 10,3 8,3 - - 24 13 - - SW 1024,1 75 0 0,0
21.11.2020 00:00:00 10,2 8,9 - - 24 13 - - SW 1025,0 50 - 0,0
20.11.2020 23:00:00 10,2 9,2 - - 22 12 - - SSW 1025,2 30 0 0,0
20.11.2020 22:00:00 10,0 9,3 - - 24 13 - - SSW 1025,8 21 0 0,0
20.11.2020 21:00:00 9,9 9,2 - - 26 14 - - SW 1026,2 15 0 0,0
20.11.2020 20:00:00 9,6 8,9 - - 22 12 - - SW 1026,5 19 0 0,2
20.11.2020 19:00:00 9,3 8,7 - - 24 13 - - SSW 1026,7 18 0 0,0
20.11.2020 18:00:00 8,8 8,4 - - 24 13 - - SSW 1027,2 3,1 0 0,0
20.11.2020 17:00:00 8,4 7,9 - - 26 14 - - SSW 1027,8 25 0 0,0
20.11.2020 16:00:00 8,1 7,6 - - 26 14 - - SSW 1027,6 12 0 0,6
20.11.2020 15:00:00 7,8 7,2 - - 26 14 - - SSW 1028,3 17 0 0,4
20.11.2020 14:00:00 7,8 6,7 - - 22 12 - - SSW 1029,1 10 0 0,0
20.11.2020 13:00:00 7,3 5,8 - - 18 10 - - SSW 1030,2 35 0 0,0
20.11.2020 12:00:00 6,8 5,1 - - 22 12 - - SSW 1030,6 35 0 0,0
20.11.2020 11:00:00 5,9 4,3 - - 18 10 - - S 1031,5 30 0 0,2
20.11.2020 10:00:00 4,5 3,3 - - 15 8 - - S 1032,2 12 0 0,0
20.11.2020 09:00:00 2,9 1,9 8,4 11,0 11 6 - - SSE 1032,4 10 0 0,0
20.11.2020 08:00:00 2,0 1,4 - - 11 6 - - S 1032,8 25 0 0,0
20.11.2020 07:00:00 1,0 0,5 - - 9 5 - - S 1032,8 28 0 0,0
20.11.2020 06:00:00 1,0 0,3 - - 8 4 - - S 1032,9 30 0 0,0
20.11.2020 05:00:00 1,0 0,0 - - 11 6 - - SW 1033,3 35 0 0,0
20.11.2020 04:00:00 1,8 0,5 - - 13 7 - - WSW 1033,4 30 0 0,0
20.11.2020 03:00:00 1,8 0,6 - - 11 6 - - WSW 1033,5 26 0 0,0
20.11.2020 02:00:00 3,2 1,7 - - 16 9 - - W 1034,2 28 0 0,0
20.11.2020 01:00:00 2,9 1,6 - - 13 7 - - WSW 1034,2 22 0 0,0
20.11.2020 00:00:00 2,7 1,4 - - 15 8 - - WSW 1034,5 20 - 0,0
19.11.2020 23:00:00 2,4 0,7 - - 13 7 - - WSW 1034,4 30 0 0,0
19.11.2020 22:00:00 0,7 -0,7 - - 11 6 - - W 1035,0 35 0 0,0
19.11.2020 21:00:00 -0,2 -2,5 - - 15 8 - - W 1034,5 55 0 0,0
19.11.2020 20:00:00 1,5 -1,9 - - 5 3 - - WSW 1032,9 60 0 0,0
19.11.2020 19:00:00 1,6 -2,6 - - 9 5 - - W 1032,8 60 0 0,0
19.11.2020 18:00:00 4,6 -0,9 - - 13 7 - - NNW 1032,2 75 0 0,0
19.11.2020 17:00:00 4,8 0,5 - - 8 4 - - NW 1031,6 55 0 0,0
19.11.2020 16:00:00 6,3 1,2 - - 13 7 - - NNW 1031,0 50 0 0,0
19.11.2020 15:00:00 7,6 1,6 - - 9 5 - - NW 1029,0 10 18 0,0
19.11.2020 14:00:00 8,1 2,8 - - 24 13 - - WNW 1029,2 10 54 0,0
19.11.2020 13:00:00 8,1 3,0 - - 21 11 - - NW 1028,4 10 48 0,0
19.11.2020 12:00:00 7,8 3,6 - - 21 11 - - NW 1027,3 10 24 0,0
19.11.2020 11:00:00 6,9 4,6 - - 18 10 - - NNW 1025,3 60 0 0,0
19.11.2020 10:00:00 7,5 4,1 - - 28 15 - - N 1023,5 10 0 0,0
19.11.2020 09:00:00 7,9 5,6 9,7 11,0 21 11 - - NNW 1021,4 10 0 0,2
19.11.2020 08:00:00 8,1 6,1 - - 16 9 - - WNW 1019,1 10 0 0,0
19.11.2020 07:00:00 8,1 5,3 - - 22 12 - - W 1017,2 75 0 0,0
19.11.2020 06:00:00 8,4 4,9 - - 31 17 50 27 W 1016,2 45 0 0,0
19.11.2020 05:00:00 8,6 4,3 - - 34 18 50 27 W 1015,1 75 0 0,0
19.11.2020 04:00:00 8,5 4,7 - - 37 20 61 33 W 1013,6 70 0 0,0
19.11.2020 03:00:00 8,7 4,6 - - 41 22 63 34 WSW 1012,4 55 0 0,0
19.11.2020 02:00:00 8,7 4,3 - - 42 23 61 33 WSW 1011,7 40 0 0,0
19.11.2020 01:00:00 8,3 3,9 - - 35 19 52 28 SW 1012,1 30 0 0,0
19.11.2020 00:00:00 7,6 3,3 - - 35 19 52 28 SW 1012,6 30 - 0,0
18.11.2020 23:00:00 7,4 3,1 - - 34 18 52 28 WSW 1012,9 30 0 0,0
18.11.2020 22:00:00 7,6 3,2 - - 29 16 48 26 WSW 1012,8 30 0 0,0
18.11.2020 21:00:00 7,6 3,3 - - 35 19 50 27 WSW 1012,4 30 0 0,0
18.11.2020 20:00:00 7,7 3,3 - - 35 19 54 29 WSW 1012,2 35 0 0,0
18.11.2020 19:00:00 8,5 4,0 - - 34 18 52 28 W 1012,0 40 0 0,0
18.11.2020 18:00:00 9,8 5,1 - - 34 18 57 31 WSW 1010,8 55 0 0,0
18.11.2020 17:00:00 11,8 9,4 - - 29 16 48 26 W 1009,7 75 0 0,6
18.11.2020 16:00:00 12,7 12,2 - - 26 14 48 26 SSW 1008,4 4,2 0 0,2
18.11.2020 15:00:00 13,3 11,3 - - 39 21 57 31 SSW 1008,3 45 0 0,0

tt = temperature
td = dewpoint
tt -20cm = temperature -20cm
tt -100cm = temperature -100cm
ff = wind speed
fx = gusts
dd = wind direction
ppp = reduced air pressure
vv = visibility
sd = sunshine duration
rr = precipitation

Next stations